If you wish to contribute or participate in the discussions about articles you are invited to join SKYbrary as a registered user

 Actions

Antananarivo/Ivato International Airport

From SKYbrary Wiki

FMMI
Airport
ICAO: FMMI – IATA: TNR
Summary
Name Antananarivo/Ivato International Airport
Region Africa
Territory
Location Antananarivo, Antananarivo Province
Serving Antananarivo
Elevation 1,279.55 m
4,198 ft
4,198 ft1,279.55 m
Coordinates -18° 47' 47.0004", 47° 28' 33.9996"
Runways
Designator Length Width Surface ROPS
11/29 3100 m10,170.604 ft 45 m147.638 ft ASP yes/yes


METAR
Observation FMMI 272230Z 09004KT 9999 FEW020 14/13 Q1023 NOSIG
Station Antananarivo / Ivato
Date/Time 27 May 2018 22:30:00
Wind direction 90°
Wind speed 04 kts
Lowest cloud amount few clouds
Temperature 14°C
Dew point 13°C
Humidity 93%
QNH 1023 hPa
Weather condition n/a

Description

International airport 16 km8.639 nm
16,000 m
52,493.438 ft
north of Antananarivo, the capital city of Madagascar.

Climatology

Antananarivo has a sub-tropical highland climate (Köppen climate classification Cwb) characterised by mild, dry winters and warm, rainy summers.

Maps

Terrain

Loading map...

Airport Layout

Loading map...


Accidents & Serious Incidents at or in vicinity of FMMI

None on SKYbrary